Simultaneous Nadir Overpasses (SNOs) Predictions

Prediction of SNOs between AQUA and GOES-15 Satellite Orbit:

Table of predicted SNOs for the next 14.0 days since TLE Epoch: 12/19/2015
Index Date Time (AQUA) AQUA Lat,Lon GOES-15 Lat,Lon Distance(km) Time Diff (sec)
1 12/20/2015 10:25:47 -0.56,-132.66 -0.06,-135.07 273.81 80
2 12/20/2015 22:47:12 -0.52,-137.86 0.08,-135.03 321.82 80
3 12/22/2015 22:35:01 0.07,-134.90 0.07,-134.96 6.38 80
4 12/24/2015 22:22:50 0.67,-131.94 0.06,-134.88 333.82 80
5 12/25/2015 10:44:06 0.42,-137.10 -0.07,-134.89 251.84 80
6 12/27/2015 10:31:55 -0.20,-134.14 -0.07,-134.80 75.26 80
7 12/29/2015 10:19:44 -0.82,-131.18 -0.07,-134.72 402.10 80
8 12/29/2015 22:41:08 -0.29,-136.37 0.08,-134.66 194.54 80
9 12/31/2015 22:28:57 0.35,-133.42 0.08,-134.57 132.13 80
10 01/01/2016 10:50:12 0.73,-138.58 -0.09,-134.59 452.93 80




NCC Satellite Simultaneous Nadir Overpasses (SNOs) Prediction Service
